Vertical_Velocity
1 1 0 1 1 2 -1 -0 1 3 2 2 0 0 -1 -2 2 1 0 1 -1 -3 -1 1 -1 -2 -2 -1 1 1 1 2
4 1 -1 1 1 0 -1 -0 -1 -2 -2 -1 0 -0 -1 -1 1 -2 -1 -6 2 5 3 -1 -0 -4 0 -2 -2 1 -3 -6
-1 1 3 3 3 4 4 2 0 -0 -1 -1 -1 0 3 -1 1 -2 -0 -3 -7 1 4 2 1 -2 -4 -0 -3 1 1 -0
-3 0 2 4 5 -0 3 4 1 1 1 1 0 1 1 4 4 -2 -1 1 2 -8 0 -2 4 -1 -1 -3 -2 1 1 2
1 4 1 -0 0 5 8 -0 1 -2 -2 -1 1 -2 -4 1 -2 5 -2 -2 1 4 -11 2 3 -1 3 -0 -2 -2 1 3
-2 3 1 4 -1 0 1 -0 8 2 4 4 2 -0 0 -2 2 -4 2 -10 -1 4 -0 -8 1 -1 2 1 -2 2 -2 0
2 -1 1 -0 3 -2 2 1 -2 5 -0 1 3 -0 -1 -1 -2 2 -2 4 -6 -1 -2 4 -10 2 2 5 1 -2 1 -4
-0 5 3 0 -1 -0 -0 -2 1 1 -5 2 4 1 3 2 -0 -6 4 1 1 -2 -2 2 9 -8 4 1 4 2 1 -2
-4 5 -0 2 3 2 -0 1 0 -1 3 -7 0 2 3 0 7 -1 6 -12 1 0 -0 1 -5 5 -9 1 6 3 2 -4
1 -3 0 2 1 1 -0 -0 -0 3 -3 -3 0 2 -0 5 -8 4 2 7 -6 2 -1 3 -2 -0 -1 -2 3 1 3 -3
-2 -1 -2 -2 1 -1 -3 3 -0 -0 -1 -6 -1 2 0 0 -0 0 -2 2 -1 1 2 2 -1 2 -3 -6 -0 4 1 -3
2 -2 -4 -5 -2 -2 -3 -3 1 4 4 5 -7 4 1 2 -6 1 -4 2 -0 -3 -1 4 2 5 -4 -5 -3 4 -1 -1
-2 2 -1 -4 -4 -6 -2 -0 1 1 2 10 4 4 10 2 -1 -2 2 -3 2 1 -0 1 2 3 -0 -2 -6 3 0 -2
-4 -3 -0 0 -5 -5 -4 -4 2 -1 0 -1 3 3 -1 8 1 6 3 -0 -1 0 5 -3 -3 1 2 -0 -9 2 2 -3
-2 -1 -0 -4 -5 -4 -1 0 0 4 7 -3 -1 -9 4 -13 -25 -1 3 -2 -1 1 4 2 -2 -6 0 -3 -6 -3 9 1
-3 -1 -1 -2 -3 -3 0 1 -0 8 3 -1 -10 4 2 9 -3 37 3 1 -0 5 5 5 7 -3 4 -8 1 -6 4 -4
-1 -1 -2 -1 -3 -5 -3 -1 -2 6 9 6 -21 -1 3 2 3 17 2 3 1 -0 17 17 -1 2 0 -0 5 -4 0 -3
-3 -1 -4 -4 -4 -1 -4 -1 3 -3 6 5 -14 -10 5 4 16 -6 15 8 -1 -8 11 -17 8 3 4 -5 2 -2 0 3
-2 -4 1 -1 -0 -1 -0 -1 -1 0 0 5 17 -4 -3 9 -1 2 11 -10 6 5 -30 29 4 4 2 -0 4 -1 -4 0
1 -1 -3 -3 1 1 -0 1 -3 1 3 12 -1 -12 8 12 -3 4 9 9 -5 6 3 -0 3 5 -2 -2 3 2 -1 1
Height
3120 3121 3122 3125 3127 3128 3130 3133 3135 3137 3138 3138 3139 3140 3140 3141 3141 3142 3143 3143 3143 3144 3144 3145 3146 3147 3147 3147 3148 3150 3152 3153
3117 3118 3119 3121 3123 3125 3127 3129 3131 3133 3135 3135 3136 3137 3137 3138 3138 3139 3140 3141 3141 3141 3142 3142 3143 3143 3144 3145 3145 3146 3148 3149
3112 3113 3115 3117 3119 3121 3123 3125 3127 3129 3130 3131 3132 3133 3134 3135 3136 3137 3138 3138 3139 3139 3138 3139 3139 3140 3141 3142 3142 3142 3145 3145
3106 3109 3111 3112 3114 3116 3118 3121 3123 3125 3126 3128 3129 3130 3131 3131 3133 3134 3134 3135 3136 3135 3135 3136 3136 3136 3137 3138 3139 3140 3140 3140
3099 3102 3104 3106 3109 3112 3115 3116 3119 3121 3123 3124 3125 3126 3126 3127 3128 3129 3130 3130 3132 3132 3132 3132 3132 3133 3133 3134 3136 3136 3136 3136
3093 3095 3098 3100 3102 3105 3108 3110 3114 3116 3117 3119 3120 3121 3122 3123 3124 3125 3126 3127 3127 3128 3129 3129 3129 3129 3130 3130 3131 3132 3132 3132
3088 3089 3092 3094 3096 3098 3100 3103 3106 3109 3111 3113 3114 3116 3117 3118 3119 3120 3121 3122 3123 3123 3124 3124 3125 3126 3127 3127 3127 3128 3128 3127
3083 3085 3086 3087 3089 3092 3094 3096 3099 3101 3103 3107 3108 3110 3112 3112 3114 3115 3116 3117 3119 3120 3120 3119 3120 3122 3122 3123 3123 3124 3124 3124
3076 3079 3080 3081 3084 3086 3088 3090 3093 3094 3096 3098 3102 3103 3106 3107 3109 3110 3112 3110 3113 3115 3116 3116 3117 3116 3117 3118 3119 3119 3120 3120
3070 3071 3073 3075 3076 3078 3080 3083 3085 3087 3089 3090 3093 3095 3098 3100 3101 3104 3107 3107 3108 3110 3111 3111 3111 3111 3112 3113 3114 3114 3115 3115
3063 3064 3065 3067 3069 3071 3073 3075 3076 3079 3081 3082 3085 3088 3089 3092 3094 3097 3099 3101 3102 3104 3106 3106 3107 3107 3107 3107 3108 3108 3109 3109
3057 3057 3058 3059 3061 3062 3064 3065 3067 3069 3071 3073 3075 3080 3081 3083 3086 3089 3091 3093 3094 3097 3099 3100 3101 3101 3100 3101 3101 3102 3102 3103
3050 3051 3050 3051 3052 3053 3054 3054 3055 3056 3058 3062 3064 3069 3071 3073 3077 3079 3083 3085 3087 3090 3091 3094 3095 3095 3094 3095 3095 3095 3096 3096
3042 3042 3043 3042 3041 3040 3040 3040 3042 3043 3043 3048 3053 3056 3058 3063 3068 3072 3075 3078 3079 3082 3084 3087 3088 3089 3089 3089 3089 3090 3090 3090
3034 3032 3031 3031 3030 3027 3026 3027 3029 3032 3033 3034 3039 3044 3048 3052 3054 3064 3067 3069 3072 3074 3076 3079 3082 3083 3084 3083 3082 3082 3084 3085
3026 3023 3021 3017 3016 3015 3012 3012 3014 3019 3024 3025 3031 3034 3037 3040 3047 3050 3057 3061 3063 3066 3068 3071 3073 3076 3077 3078 3077 3077 3077 3078
3017 3013 3009 3007 3003 3000 2998 2998 3001 3005 3011 3016 3019 3023 3027 3030 3036 3041 3046 3050 3054 3056 3058 3063 3066 3068 3071 3073 3072 3071 3072 3072
3008 3004 3000 2996 2992 2989 2988 2987 2991 2994 2998 3004 3007 3013 3018 3021 3024 3029 3036 3041 3044 3048 3048 3053 3059 3061 3064 3066 3066 3065 3066 3067
3002 2997 2992 2988 2984 2981 2980 2979 2980 2983 2986 2991 2998 3002 3007 3011 3014 3017 3025 3033 3037 3039 3040 3032 3047 3053 3056 3059 3059 3059 3059 3060
2995 2991 2986 2980 2977 2974 2973 2973 2974 2974 2978 2983 2989 2993 2998 3002 3005 3009 3016 3021 3026 3030 3034 3035 3039 3044 3048 3050 3052 3052 3051 3053